Weather History for K08D - March, 2013

Change the Weather History Date:

Sunday, March 10, 2013

  Actual Average (KMOT) Record (KMOT)
Temperature  
Mean Temperature 10 °F 25 °F  
Max Temperature 19 °F 34 °F 64 °F (2012)
Min Temperature 0 °F 17 °F -29 °F (1948)
Degree Days  
Heating Degree Days 56 40  
Month to date heating degree days 416  
Since 1 July heating degree days 6992  
Cooling Degree Days 0 0  
Month to date cooling degree days 0  
Year to date cooling degree days 0  
Moisture  
Dew Point 7 °F    
Average Humidity 86    
Maximum Humidity 93    
Minimum Humidity 73    
Precipitation  
Precipitation 0.00 in 0.02 in 0.13 in (1962)
Month to date precipitation 0.20  
Year to date precipitation 1.11  
Sea Level Pressure  
Sea Level Pressure 30.14 in    
Wind  
Wind Speed 9 mph (WSW)    
Max Wind Speed 18 mph    
Max Gust Speed 23 mph    
Visibility 10 miles    
Events Snow    
T = Trace of Precipitation, MM = Missing Value Source: NWS Daily Summary

Daily Weather History Graph

Daily Weather History Graph

Search for Another Location

Airport or City:

Trip Planner

Search our weather history database for the weather conditions in past years. The results will help you decide how hot, cold, wet, or windy it might be!

Date:

Astronomy

Mar. 10, 2013 Rise Set
Actual Time 8:12 AM CDT 7:47 PM CDT
Civil Twilight 7:41 AM CDT 8:19 PM CDT
Nautical Twilight 7:05 AM CDT 8:55 PM CDT
Astronomical Twilight 6:28 AM CDT 9:32 PM CDT
Moon 7:16 AM CDT (3/10) 6:57 PM CDT (3/10)
Length of Visible Light 12h 37m
Length of Day
11h 35m
Waning Crescent, 2% of the Moon is Illuminated
Mar 10
Waning Crescent
Mar 11
New
Mar 19
First Quarter
Mar 27
Full
Apr 2
Last Quarter

Hourly Weather History & Observations

Time (CDT) Temp. Windchill Dew Point Humidity Pressure Visibility Wind Dir Wind Speed Gust Speed Precip Events Conditions
12:15 AM 6.8 °F -11.3 °F 5.0 °F 92% 30.17 in 10.0 mi NNW 16.1 mph - N/A   Clear
12:35 AM 6.8 °F -10.7 °F 5.0 °F 92% 30.17 in 10.0 mi NNW 15.0 mph - N/A   Clear
12:55 AM 6.8 °F -10.7 °F 5.0 °F 92% 30.17 in 10.0 mi NNW 15.0 mph - N/A   Clear
1:15 AM 6.8 °F -11.3 °F 5.0 °F 92% 30.17 in 10.0 mi NNW 16.1 mph - N/A   Clear
1:35 AM 6.8 °F -11.8 °F 3.2 °F 85% 30.17 in 10.0 mi NNW 17.3 mph 23.0 mph N/A   Clear
1:55 AM 6.8 °F -12.4 °F 3.2 °F 85% 30.16 in 10.0 mi NNW 18.4 mph - N/A   Clear
3:15 AM 6.8 °F -10.0 °F 3.2 °F 85% 30.18 in 10.0 mi NNW 13.8 mph - N/A   Clear
3:35 AM 5.0 °F -10.8 °F 3.2 °F 92% 30.18 in 10.0 mi NNW 11.5 mph - N/A   Clear
3:55 AM 5.0 °F -11.6 °F 1.4 °F 85% 30.18 in 10.0 mi NW 12.7 mph - N/A   Clear
4:15 AM 3.2 °F -13.9 °F -0.4 °F 85% 30.18 in 10.0 mi NW 12.7 mph - N/A   Mostly Cloudy
4:35 AM 3.2 °F -12.2 °F -0.4 °F 85% 30.18 in 7.0 mi WNW 10.4 mph - N/A   Overcast
4:55 AM 3.2 °F -14.6 °F -0.4 °F 85% 30.18 in 10.0 mi WNW 13.8 mph - N/A   Overcast
5:15 AM 1.4 °F -14.5 °F -0.4 °F 92% 30.19 in 10.0 mi NW 10.4 mph - N/A   Scattered Clouds
5:35 AM 1.4 °F -14.5 °F -0.4 °F 92% 30.19 in 10.0 mi NW 10.4 mph - N/A   Clear
5:55 AM 1.4 °F -14.5 °F -0.4 °F 92% 30.20 in 10.0 mi NW 10.4 mph - N/A   Clear
6:15 AM 1.4 °F -15.3 °F -0.4 °F 92% 30.20 in 10.0 mi NW 11.5 mph - N/A   Clear
7:15 AM 1.4 °F -15.3 °F -0.4 °F 92% 30.22 in 10.0 mi NW 11.5 mph - N/A   Clear
7:35 AM -0.4 °F - -2.2 °F 92% 30.22 in 10.0 mi Calm Calm - N/A   Clear
7:55 AM -0.4 °F -10.4 °F -4.0 °F 85% 30.23 in 10.0 mi West 4.6 mph - N/A   Clear
8:15 AM -0.4 °F -12.0 °F -4.0 °F 85% 30.24 in 10.0 mi NW 5.8 mph - N/A   Clear
8:35 AM -0.4 °F - -4.0 °F 85% 30.25 in 10.0 mi Calm Calm - N/A   Clear
8:55 AM -0.4 °F -8.3 °F -2.2 °F 92% 30.25 in 7.0 mi WNW 3.5 mph - N/A   Mostly Cloudy
9:15 AM -0.4 °F -12.0 °F -2.2 °F 92% 30.24 in 5.0 mi NW 5.8 mph - N/A Snow Light Snow
9:35 AM 1.4 °F -11.3 °F -0.4 °F 92% 30.25 in 10.0 mi WNW 6.9 mph - N/A   Scattered Clouds
9:55 AM 1.4 °F - -0.4 °F 92% 30.26 in 10.0 mi Calm Calm - N/A   Partly Cloudy
10:15 AM 1.4 °F -6.2 °F -0.4 °F 92% 30.24 in 10.0 mi SSW 3.5 mph - N/A   Partly Cloudy
10:35 AM 3.2 °F -4.2 °F -0.4 °F 85% 30.25 in 10.0 mi West 3.5 mph - N/A   Partly Cloudy
10:55 AM 5.0 °F -4.1 °F 1.4 °F 85% 30.25 in 10.0 mi West 4.6 mph - N/A   Clear
11:15 AM 6.8 °F - 3.2 °F 85% 30.25 in 10.0 mi Calm Calm - N/A   Clear
11:35 AM 10.4 °F - 6.8 °F 85% 30.25 in 10.0 mi Calm Calm - N/A   Clear
11:55 AM 6.8 °F -2.0 °F 3.2 °F 85% 30.23 in 10.0 mi WSW 4.6 mph - N/A Snow Light Snow
12:15 PM 8.6 °F 0.1 °F 5.0 °F 85% 30.21 in 10.0 mi SSW 4.6 mph - N/A   Clear
12:35 PM 10.4 °F - 6.8 °F 85% 30.22 in 10.0 mi Calm Calm - N/A   Clear
12:55 PM 12.2 °F - 6.8 °F 79% 30.23 in 10.0 mi Calm Calm - N/A   Clear
1:15 PM 15.8 °F 8.6 °F 8.6 °F 73% 30.23 in 10.0 mi West 4.6 mph - N/A   Clear
1:35 PM 15.8 °F 10.2 °F 8.6 °F 73% 30.21 in 10.0 mi WSW 3.5 mph - N/A   Clear
1:55 PM 15.8 °F 8.6 °F 10.4 °F 79% 30.21 in 10.0 mi WSW 4.6 mph - N/A   Clear
2:15 PM 15.8 °F 6.1 °F 10.4 °F 79% 30.20 in 10.0 mi SW 6.9 mph - N/A   Clear
2:35 PM 15.8 °F 6.1 °F 10.4 °F 79% 30.19 in 10.0 mi WSW 6.9 mph - N/A   Clear
2:55 PM 15.8 °F 6.1 °F 12.2 °F 86% 30.17 in 10.0 mi WSW 6.9 mph - N/A   Clear
3:15 PM 17.6 °F 9.3 °F 12.2 °F 79% 30.16 in 10.0 mi WSW 5.8 mph - N/A   Clear
3:35 PM 17.6 °F 9.3 °F 14.0 °F 86% 30.15 in 10.0 mi WSW 5.8 mph - N/A   Clear
3:55 PM 17.6 °F 9.3 °F 12.2 °F 79% 30.14 in 10.0 mi WSW 5.8 mph - N/A   Clear
4:15 PM 17.6 °F 8.2 °F 12.2 °F 79% 30.13 in 10.0 mi SW 6.9 mph - N/A   Clear
4:35 PM 17.6 °F 8.2 °F 12.2 °F 79% 30.13 in 10.0 mi SW 6.9 mph - N/A   Clear
4:55 PM 17.6 °F 10.7 °F 14.0 °F 86% 30.12 in 10.0 mi SW 4.6 mph - N/A   Clear
5:15 PM 17.6 °F 10.7 °F 14.0 °F 86% 30.11 in 10.0 mi SW 4.6 mph - N/A   Clear
5:35 PM 19.4 °F 12.8 °F 14.0 °F 80% 30.11 in 10.0 mi SSW 4.6 mph - N/A   Clear
5:55 PM 19.4 °F 12.8 °F 14.0 °F 80% 30.10 in 10.0 mi South 4.6 mph - N/A   Clear
6:15 PM 17.6 °F 9.3 °F 14.0 °F 86% 30.09 in - SSW 5.8 mph - N/A   Unknown
6:35 PM 15.8 °F 7.2 °F 14.0 °F 93% 30.08 in 10.0 mi South 5.8 mph - N/A   Clear
6:55 PM 17.6 °F 12.3 °F 12.2 °F 79% 30.07 in - South 3.5 mph - N/A   Clear
7:15 PM 17.6 °F 12.3 °F 14.0 °F 86% 30.06 in 10.0 mi ESE 3.5 mph - N/A   Clear
7:35 PM 15.8 °F 8.6 °F 14.0 °F 93% 30.06 in 10.0 mi SE 4.6 mph - N/A   Clear
7:55 PM 14.0 °F 6.5 °F 12.2 °F 93% 30.06 in 10.0 mi South 4.6 mph - N/A   Clear
8:15 PM 14.0 °F 3.9 °F 10.4 °F 86% 30.05 in 10.0 mi South 6.9 mph - N/A Snow Light Snow
8:35 PM 14.0 °F 1.2 °F 10.4 °F 86% 30.05 in 10.0 mi SSE 10.4 mph - N/A   Scattered Clouds
8:55 PM 14.0 °F 5.1 °F 10.4 °F 86% 30.04 in 10.0 mi South 5.8 mph - N/A   Partly Cloudy
9:15 PM 14.0 °F 8.2 °F 10.4 °F 86% 30.03 in 10.0 mi SSW 3.5 mph - N/A   Partly Cloudy
9:35 PM 15.8 °F 5.1 °F 12.2 °F 86% 30.02 in 10.0 mi South 8.1 mph - N/A   Partly Cloudy
9:55 PM 15.8 °F 6.1 °F 14.0 °F 93% 30.02 in 10.0 mi SSW 6.9 mph - N/A   Partly Cloudy
10:15 PM 14.0 °F 6.5 °F 12.2 °F 93% 30.01 in 10.0 mi South 4.6 mph - N/A   Mostly Cloudy
10:35 PM 14.0 °F 5.1 °F 12.2 °F 93% 30.00 in 10.0 mi SSE 5.8 mph - N/A   Overcast
10:55 PM 15.8 °F 7.2 °F 12.2 °F 86% 30.00 in 10.0 mi SE 5.8 mph - N/A   Mostly Cloudy
11:15 PM 14.0 °F 5.1 °F 12.2 °F 93% 29.98 in 10.0 mi SE 5.8 mph - N/A   Mostly Cloudy
11:35 PM 15.8 °F 6.1 °F 12.2 °F 86% 29.97 in 10.0 mi SSE 6.9 mph - N/A   Partly Cloudy
11:55 PM 14.0 °F 5.1 °F 10.4 °F 86% 29.96 in 10.0 mi SSE 5.8 mph - N/A   Mostly Cloudy
12:15 AM 14.0 °F 5.1 °F 10.4 °F 86% 29.95 in 10.0 mi SE 5.8 mph - N/A   Overcast
12:35 AM 14.0 °F 3.9 °F 10.4 °F 86% 29.94 in 10.0 mi SE 6.9 mph - N/A   Overcast
12:55 AM 15.8 °F 6.1 °F 12.2 °F 86% 29.92 in 10.0 mi South 6.9 mph - N/A   Overcast